Location: Mentone
(34.5413°N, 85.5351°W)
Time: 11:52:53
(UTC-05:00)

Amateur Radio Satellites - All Passes

Search period start: 24 October 2014 11:22
Search period end: 25 October 2014 11:22
Location: Mentone, 34.5413°N, 85.5351°W

Satellite Date Start Highest point End Downlink Frequencies (MHz)
Time Altitude Azimuth
UKube-1 24 Oct 11:29:10 11:32:03 18° 292° (WNW) 11:34:57 145.840 MHz, 145.915 MHz
SO-50 24 Oct 11:29:28 11:30:13 10° 106° (ESE) 11:30:58 436.795 FM
KITSAT 1 24 Oct 11:37:34 11:45:18 52° 111° (ESE) 11:53:03 435.175 FM
Sapphire 24 Oct 12:03:36 12:06:24 14° 48° (NE) 12:09:13 437.095 MHz 1200 baud AX-25 AFSK
Oscar 19 24 Oct 12:06:38 12:08:19 12° 63° (ENE) 12:10:00 437.125 CW, 437.150 USB
FUNcube-1 24 Oct 12:08:01 12:10:34 16° 292° (WNW) 12:13:05 145.950 - 145.970 MHz USB
ISS 24 Oct 12:08:23 12:11:37 52° 134° (SE) 12:14:52 145.800 FM
PANSAT 24 Oct 12:09:35 12:11:34 14° 200° (SSW) 12:13:34 not established
Oscar 10/S400 24 Oct 12:19:57 12:41:55 38° 153° (SSE) 12:59:52 145.825 - 145.975 CW/USB, Beacon 145.810 USB
PCSat 24 Oct 12:25:09 12:29:24 23° 53° (NE) 12:33:38 145.825 MHz
Oscar 16 24 Oct 12:48:59 12:53:33 33° 70° (ENE) 12:58:07 437.025 USB, Beacon 2401.1428
AO-Echo 24 Oct 12:50:07 12:52:53 15° 65° (ENE) 12:55:42 ?
SO-50 24 Oct 13:05:43 13:10:08 63° 301° (WNW) 13:14:41 436.795 FM
Uribyol 2 24 Oct 13:08:30 13:12:22 21° 67° (ENE) 13:16:14 436.500 FM
JAS-1B 24 Oct 13:09:32 13:15:16 44° 71° (ENE) 13:20:37 435.800 - 435.900 CW/SSB
ITAMSAT 1 24 Oct 13:14:16 13:18:15 23° 67° (ENE) 13:22:15 435.822 SSB
Gurwin Techsat 1B 24 Oct 13:32:03 13:35:25 17° 65° (ENE) 13:38:47 435.225 FM
KITSAT 1 24 Oct 13:33:49 13:40:55 33° 309° (NW) 13:48:03 435.175 FM
Oscar 19 24 Oct 13:41:50 13:46:59 74° 258° (WSW) 13:52:08 437.125 CW, 437.150 USB
TMSAT-1 24 Oct 13:43:48 13:46:59 16° 65° (ENE) 13:50:09 436.925 FM
Sapphire 24 Oct 13:45:00 13:50:27 79° 246° (WSW) 13:55:51 437.095 MHz 1200 baud AX-25 AFSK
ISS 24 Oct 13:46:18 13:48:31 17° 330° (NNW) 13:50:45 145.800 FM
AO-27 24 Oct 13:58:23 14:03:31 64° 74° (ENE) 14:08:41 436.795 MHz FM
PCSat 24 Oct 14:07:51 14:12:58 44° 250° (WSW) 14:18:04 145.825 MHz
AO-Echo 24 Oct 14:26:27 14:31:08 51° 260° (W) 14:36:01 ?
AO-7 24 Oct 14:26:40 14:31:59 19° 56° (NE) 14:37:17 29.400 - 29.500 MHz
Oscar 16 24 Oct 14:28:43 14:32:52 25° 264° (W) 14:37:03 437.025 USB, Beacon 2401.1428
UOSAT-12 24 Oct 14:31:36 14:36:12 86° 118° (ESE) 14:40:55 437.025 FM, 437.400 FM
Uribyol 2 24 Oct 14:46:39 14:51:31 40° 261° (W) 14:56:26 436.500 FM
ITAMSAT 1 24 Oct 14:52:41 14:57:28 37° 262° (W) 15:02:18 435.822 SSB
JAS-1B 24 Oct 15:01:49 15:06:06 20° 264° (W) 15:10:11 435.800 - 435.900 CW/SSB
Gurwin Techsat 1B 24 Oct 15:09:46 15:14:54 52° 260° (W) 15:20:05 435.225 FM
TMSAT-1 24 Oct 15:21:13 15:26:23 55° 260° (W) 15:31:36 436.925 FM
AO-27 24 Oct 15:41:17 15:43:24 12° 268° (W) 15:45:31 436.795 MHz FM
Saudisat 1A 24 Oct 16:07:27 16:11:18 28° 54° (NE) 16:15:07 436.775 MHz
Uosat F 24 Oct 16:10:42 16:15:38 63° 74° (ENE) 16:20:37 435.120 FM
UOSAT-12 24 Oct 16:15:26 16:16:58 11° 316° (NW) 16:18:32 437.025 FM, 437.400 FM
AO-7 24 Oct 16:15:26 16:23:43 85° 253° (WSW) 16:32:03 29.400 - 29.500 MHz
JAS-2 24 Oct 17:00:48 17:06:18 46° 70° (ENE) 17:12:31 435.800 - 435.900 CW/SSB, 435.910 FM
Hamsat 24 Oct 17:35:15 17:39:24 58° 76° (ENE) 17:43:32 145.90 MHz
Saudisat 1A 24 Oct 17:47:09 17:50:43 24° 249° (WSW) 17:54:17 436.775 MHz
Uosat F 24 Oct 17:53:04 17:54:47 12° 268° (W) 17:56:31 435.120 FM
OPAL 24 Oct 17:54:43 17:59:40 72° 104° (ESE) 18:04:35 ?
AO-7 24 Oct 18:13:49 18:17:25 13° 268° (W) 18:21:02 29.400 - 29.500 MHz
ISS 24 Oct 18:40:32 18:42:44 16° 30° (NNE) 18:44:56 145.800 FM
JAS-2 24 Oct 18:47:18 18:51:42 22° 269° (W) 18:56:30 435.800 - 435.900 CW/SSB, 435.910 FM
SO-67 24 Oct 19:00:04 19:03:28 70° 77° (ENE) 19:06:54 435.3500 MHz FM
HO-68 24 Oct 19:16:15 19:20:16 16° 58° (ENE) 19:24:17 435.675 MHz FM
KITSAT 1 24 Oct 19:36:11 19:40:38 15° 39° (NE) 19:45:04 435.175 FM
OPAL 24 Oct 19:36:18 19:37:54 12° 299° (WNW) 19:39:30 ?
STRAND 1 24 Oct 19:38:41 19:43:52 88° 283° (WNW) 19:49:00 ?
AO-40 24 Oct 20:09:05 22:20:16 37° 209° (SSW) 03:14:19 Beacon 2401.320
ISS 24 Oct 20:16:23 20:19:39 53° 226° (SW) 20:22:53 145.800 FM
RS-15 24 Oct 20:37:31 20:46:08 27° 104° (ESE) 20:54:36 29.354 - 29.394 USB, Beacon 29.352 USB
UKube-1 24 Oct 20:44:55 20:48:05 20° 68° (ENE) 20:51:16 145.840 MHz, 145.915 MHz
HO-68 24 Oct 20:59:52 21:07:01 86° 255° (WSW) 21:14:14 435.675 MHz FM
FUNcube-1 24 Oct 21:23:53 21:27:17 21° 69° (ENE) 21:30:40 145.950 - 145.970 MHz USB
Oscar 11 24 Oct 21:25:23 21:29:35 51° 75° (ENE) 21:33:47 145.825 FM, Beacon 2401.500 USB
KITSAT 1 24 Oct 21:29:31 21:37:35 69° 61° (ENE) 21:45:36 435.175 FM
SO-50 24 Oct 21:40:31 21:45:10 44° 57° (ENE) 21:49:50 436.795 FM
ZACube-1 24 Oct 22:13:58 22:18:34 79° 77° (ENE) 22:23:07 437.345 MHz
UKube-1 24 Oct 22:20:15 22:24:03 29° 262° (W) 22:27:53 145.840 MHz, 145.915 MHz
RS-15 24 Oct 22:46:28 22:57:27 70° 302° (WNW) 23:08:22 29.354 - 29.394 USB, Beacon 29.352 USB
HO-68 24 Oct 22:53:17 22:55:31 12° 270° (W) 22:57:46 435.675 MHz FM
FUNcube-1 24 Oct 22:59:20 23:03:25 31° 263° (W) 23:07:29 145.950 - 145.970 MHz USB
Oscar 11 24 Oct 23:04:57 23:06:00 11° 268° (W) 23:07:04 145.825 FM, Beacon 2401.500 USB
UOSAT-12 24 Oct 23:04:59 23:09:05 29° 53° (NE) 23:13:06 437.025 FM, 437.400 FM
SO-50 24 Oct 23:22:04 23:25:22 18° 251° (WSW) 23:28:41 436.795 FM
KITSAT 1 24 Oct 23:26:29 23:32:11 22° 257° (WSW) 23:37:53 435.175 FM
MaSat-1 24 Oct 23:49:35 23:53:44 54° 294° (WNW) 23:57:32 437.345 MHz
UOSAT-12 25 Oct 00:45:11 00:49:07 27° 249° (WSW) 00:52:58 437.025 FM, 437.400 FM
JAS-1B 25 Oct 00:56:47 01:01:10 17° 95° (E) 01:05:56 435.800 - 435.900 CW/SSB
RS-15 25 Oct 01:04:53 01:12:14 20° 328° (NNW) 01:19:39 29.354 - 29.394 USB, Beacon 29.352 USB
Oscar 16 25 Oct 01:05:26 01:08:19 15° 93° (E) 01:11:11 437.025 USB, Beacon 2401.1428
Oscar 10/S400 25 Oct 01:28:22 02:31:18 20° 248° (WSW) 04:48:21 145.825 - 145.975 CW/USB, Beacon 145.810 USB
Oscar 19 25 Oct 01:57:07 02:02:06 52° 100° (E) 02:07:04 437.125 CW, 437.150 USB
AO-27 25 Oct 02:15:29 02:20:04 30° 97° (E) 02:24:36 436.795 MHz FM
AO-Echo 25 Oct 02:36:48 02:42:07 69° 102° (ESE) 02:47:23 ?
Sapphire 25 Oct 02:41:23 02:45:28 22° 106° (ESE) 02:49:35 437.095 MHz 1200 baud AX-25 AFSK
Oscar 16 25 Oct 02:42:57 02:47:55 52° 287° (WNW) 02:52:51 437.025 USB, Beacon 2401.1428
JAS-1B 25 Oct 02:45:04 02:51:55 77° 286° (WNW) 03:00:10 435.800 - 435.900 CW/SSB
Uribyol 2 25 Oct 03:02:37 03:07:51 84° 284° (WNW) 03:13:01 436.500 FM
PCSat 25 Oct 03:02:50 03:07:49 40° 110° (ESE) 03:12:50 145.825 MHz
ITAMSAT 1 25 Oct 03:08:41 03:13:55 79° 285° (WNW) 03:19:07 435.822 SSB
RS-15 25 Oct 03:28:48 03:31:21 11° 6° (N) 03:33:55 29.354 - 29.394 USB, Beacon 29.352 USB
Gurwin Techsat 1B 25 Oct 03:29:24 03:34:44 85° 103° (ESE) 03:40:03 435.225 FM
Oscar 19 25 Oct 03:37:56 03:40:58 16° 295° (WNW) 03:44:00 437.125 CW, 437.150 USB
TMSAT-1 25 Oct 03:40:32 03:45:51 80° 103° (ESE) 03:51:09 436.925 FM
AO-27 25 Oct 03:55:04 03:59:25 27° 292° (WNW) 04:03:46 436.795 MHz FM
AO-Echo 25 Oct 04:17:46 04:20:13 13° 296° (WNW) 04:22:40 ?
AO-7 25 Oct 04:21:19 04:29:04 41° 100° (E) 04:36:46 29.400 - 29.500 MHz
Uosat F 25 Oct 04:22:34 04:26:45 26° 96° (E) 04:30:55 435.120 FM
Sapphire 25 Oct 04:23:29 04:28:34 41° 301° (WNW) 04:33:41 437.095 MHz 1200 baud AX-25 AFSK
JAS-1B 25 Oct 04:39:46 04:41:47 11° 299° (WNW) 04:43:53 435.800 - 435.900 CW/SSB
PCSat 25 Oct 04:46:55 04:51:19 25° 306° (NW) 04:55:44 145.825 MHz
OPAL 25 Oct 05:06:01 05:11:11 87° 74° (ENE) 05:16:19 ?
Gurwin Techsat 1B 25 Oct 05:13:05 05:13:55 10° 298° (WNW) 05:14:45 435.225 FM
TMSAT-1 25 Oct 05:23:33 05:25:01 11° 298° (WNW) 05:26:30 436.925 FM
Hamsat 25 Oct 05:26:00 05:28:04 13° 93° (E) 05:30:08 145.90 MHz
RS-15 25 Oct 05:40:20 05:49:30 28° 41° (NE) 05:58:54 29.354 - 29.394 USB, Beacon 29.352 USB
JAS-2 25 Oct 05:57:25 06:05:12 64° 101° (E) 06:12:50 435.800 - 435.900 CW/SSB, 435.910 FM
Uosat F 25 Oct 06:01:06 06:05:28 30° 291° (WNW) 06:09:48 435.120 FM
Saudisat 1A 25 Oct 06:11:48 06:14:29 16° 109° (ESE) 06:17:10 436.775 MHz
AO-7 25 Oct 06:14:10 06:21:41 40° 296° (WNW) 06:29:14 29.400 - 29.500 MHz
PANSAT 25 Oct 06:44:12 06:46:57 19° 164° (SSE) 06:49:42 not established
STRAND 1 25 Oct 06:51:00 06:56:07 88° 258° (WSW) 07:01:18 ?
Hamsat 25 Oct 07:00:13 07:04:08 39° 286° (WNW) 07:08:04 145.90 MHz
JAS-2 25 Oct 07:43:30 07:49:32 26° 296° (WNW) 07:55:35 435.800 - 435.900 CW/SSB, 435.910 FM
Saudisat 1A 25 Oct 07:49:32 07:53:40 41° 304° (WNW) 07:57:51 436.775 MHz
RS-15 25 Oct 07:51:55 08:03:12 84° 244° (WSW) 08:15:00 29.354 - 29.394 USB, Beacon 29.352 USB
SO-67 25 Oct 07:59:30 08:02:53 55° 284° (WNW) 08:06:15 435.3500 MHz FM
PANSAT 25 Oct 08:23:14 08:26:39 31° 176° (S) 08:30:05 not established
HO-68 25 Oct 08:32:48 08:38:06 22° 95° (E) 08:43:21 435.675 MHz FM
Oscar 11 25 Oct 09:18:31 09:20:15 12° 93° (E) 09:21:59 145.825 FM, Beacon 2401.500 USB
MaSat-1 25 Oct 09:39:11 09:41:38 51° 249° (WSW) 09:43:55 437.345 MHz
PANSAT 25 Oct 10:03:08 10:06:26 28° 189° (S) 10:09:44 not established
KITSAT 1 25 Oct 10:04:49 10:07:10 11° 99° (E) 10:09:30 435.175 FM
RS-15 25 Oct 10:07:40 10:13:59 17° 260° (W) 10:20:27 29.354 - 29.394 USB, Beacon 29.352 USB
ZACube-1 25 Oct 10:08:00 10:10:58 18° 94° (E) 10:13:53 437.345 MHz
UKube-1 25 Oct 10:11:15 10:15:34 59° 101° (E) 10:19:51 145.840 MHz, 145.915 MHz
HO-68 25 Oct 10:19:05 10:26:08 60° 290° (WNW) 10:33:09 435.675 MHz FM
FUNcube-1 25 Oct 10:51:37 10:55:49 65° 101° (E) 10:59:56 145.950 - 145.970 MHz USB
Oscar 11 25 Oct 10:52:31 10:56:37 45° 286° (WNW) 11:00:43 145.825 FM, Beacon 2401.500 USB
